GMATT EGCC-EBBR

Flight info

Callsign GMATT
Flight time 0h 52m
Altitude 23000
Route LISTO L612 HON/N0448F290 L15 BIG Q70 VABIK/N0402F230 Q70 KOK
Aircraft A320/M-SDE3FGHIRWY/LB1

Departure

Time 2026-04-30 20:40
Airport Manchester Airport (EGCC)

Arrival

Time 2026-04-30 21:32
Airport Brussels Airport (EBBR)
Time Latitude Longitude Altitude Speed Heading
2026-04-30 20:17 53.36425 -2.28239 255 ft 0 kts 45°
2026-04-30 20:30 53.36386 -2.28306 255 ft 4 kts 50°
2026-04-30 20:31 53.36360 -2.28343 255 ft 4 kts 135°
2026-04-30 20:32 53.36317 -2.28269 255 ft 0 kts 135°
2026-04-30 20:33 53.36313 -2.28262 255 ft 3 kts 132°
2026-04-30 20:34 53.36221 -2.28135 255 ft 12 kts 187°
2026-04-30 20:34 53.36088 -2.28041 255 ft 11 kts 135°
2026-04-30 20:35 53.36029 -2.27953 255 ft 13 kts 140°
2026-04-30 20:35 53.35934 -2.27854 255 ft 17 kts 167°
2026-04-30 20:35 53.35653 -2.27891 242 ft 26 kts 186°
2026-04-30 20:36 53.35462 -2.27929 239 ft 26 kts 198°
2026-04-30 20:36 53.35325 -2.28131 237 ft 29 kts 225°
2026-04-30 20:36 53.35067 -2.28641 229 ft 28 kts 230°
2026-04-30 20:37 53.34991 -2.28749 228 ft 7 kts 190°
2026-04-30 20:37 53.34977 -2.28746 228 ft 0 kts 168°
2026-04-30 20:37 53.34969 -2.28741 228 ft 3 kts 159°
2026-04-30 20:37 53.34902 -2.28642 228 ft 16 kts 141°
2026-04-30 20:38 53.34869 -2.28544 230 ft 8 kts 64°
2026-04-30 20:38 53.34887 -2.28503 231 ft 0 kts 51°
2026-04-30 20:39 53.34915 -2.28447 233 ft 27 kts 50°
2026-04-30 20:39 53.35247 -2.27757 238 ft 119 kts 51°
2026-04-30 20:40 53.36566 -2.24779 1271 ft 179 kts 58°
2026-04-30 20:40 53.37314 -2.23063 2123 ft 189 kts 69°
2026-04-30 20:40 53.37487 -2.20821 2513 ft 211 kts 108°
2026-04-30 20:41 53.35050 -2.17413 3748 ft 271 kts 167°
2026-04-30 20:41 53.33109 -2.16933 4715 ft 290 kts 177°
2026-04-30 20:41 53.31050 -2.17068 5785 ft 300 kts 182°
2026-04-30 20:41 53.28960 -2.17245 7112 ft 302 kts 183°
2026-04-30 20:42 53.27576 -2.17453 8010 ft 300 kts 185°
2026-04-30 20:42 53.24806 -2.17942 9727 ft 305 kts 185°
2026-04-30 20:42 53.20419 -2.18604 11412 ft 336 kts 183°
2026-04-30 20:43 53.18081 -2.18988 12463 ft 338 kts 185°
2026-04-30 20:43 53.16499 -2.19273 13229 ft 340 kts 182°
2026-04-30 20:43 53.14131 -2.19175 14279 ft 342 kts 172°
2026-04-30 20:44 53.09577 -2.16677 16131 ft 350 kts 158°
2026-04-30 20:44 53.07322 -2.15096 17038 ft 354 kts 157°
2026-04-30 20:44 53.02727 -2.11877 18735 ft 363 kts 157°
2026-04-30 20:45 52.98058 -2.08654 20504 ft 361 kts 158°
2026-04-30 20:45 52.95749 -2.07071 21513 ft 357 kts 158°
2026-04-30 20:45 52.93495 -2.05527 22544 ft 353 kts 158°
2026-04-30 20:46 52.86839 -2.00966 25527 ft 337 kts 158°
2026-04-30 20:46 52.84740 -1.99237 26124 ft 345 kts 150°
2026-04-30 20:47 52.80501 -1.94672 26373 ft 381 kts 147°
2026-04-30 20:47 52.78266 -1.92171 26519 ft 395 kts 147°
2026-04-30 20:48 52.73861 -1.86377 27020 ft 416 kts 141°
2026-04-30 20:48 52.71627 -1.83237 27156 ft 427 kts 141°
2026-04-30 20:48 52.69353 -1.79999 27302 ft 437 kts 141°
2026-04-30 20:48 52.67043 -1.76697 27639 ft 441 kts 141°
2026-04-30 20:49 52.64721 -1.73404 28151 ft 441 kts 141°
2026-04-30 20:49 52.62391 -1.70126 28739 ft 439 kts 141°
2026-04-30 20:49 52.60067 -1.66879 29336 ft 438 kts 141°
2026-04-30 20:50 52.55427 -1.60437 30517 ft 435 kts 141°
2026-04-30 20:50 52.53118 -1.57237 31015 ft 434 kts 141°
2026-04-30 20:50 52.50814 -1.54040 31503 ft 434 kts 141°
2026-04-30 20:50 52.48703 -1.50499 31939 ft 437 kts 130°
2026-04-30 20:51 52.46878 -1.46497 32384 ft 437 kts 129°
2026-04-30 20:51 52.43282 -1.38474 33104 ft 436 kts 128°
2026-04-30 20:51 52.41493 -1.34457 33235 ft 436 kts 129°
2026-04-30 20:52 52.37936 -1.26513 33234 ft 435 kts 129°
2026-04-30 20:53 52.32863 -1.14108 33235 ft 438 kts 121°
2026-04-30 20:53 52.30004 -1.05308 33230 ft 438 kts 121°
2026-04-30 20:54 52.25741 -0.92187 33214 ft 438 kts 121°
2026-04-30 20:55 52.21446 -0.79038 33214 ft 438 kts 121°
2026-04-30 20:55 52.18573 -0.70274 33213 ft 438 kts 121°
2026-04-30 20:56 52.14248 -0.57159 33212 ft 438 kts 121°
2026-04-30 20:57 52.09912 -0.44071 33212 ft 438 kts 121°
2026-04-30 20:57 52.07006 -0.35356 33208 ft 438 kts 121°
2026-04-30 20:58 52.02645 -0.22318 33214 ft 438 kts 121°
2026-04-30 20:58 51.99730 -0.13639 33216 ft 438 kts 121°
2026-04-30 20:59 51.95336 -0.00645 33209 ft 438 kts 121°
2026-04-30 21:00 51.89589 0.16672 33245 ft 436 kts 119°
2026-04-30 21:01 51.85592 0.29919 33248 ft 437 kts 118°
2026-04-30 21:02 51.81570 0.43062 33242 ft 437 kts 119°
2026-04-30 21:02 51.78818 0.51880 33229 ft 436 kts 119°
2026-04-30 21:03 51.76105 0.60554 33227 ft 435 kts 119°
2026-04-30 21:03 51.73378 0.69271 33221 ft 435 kts 119°
2026-04-30 21:04 51.70646 0.77977 33224 ft 435 kts 119°
2026-04-30 21:04 51.66539 0.91012 33222 ft 435 kts 119°
2026-04-30 21:05 51.63789 0.99689 33227 ft 435 kts 119°
2026-04-30 21:05 51.61025 1.08359 33229 ft 435 kts 119°
2026-04-30 21:06 51.58257 1.17025 33237 ft 436 kts 119°
2026-04-30 21:06 51.55490 1.25688 33238 ft 436 kts 119°
2026-04-30 21:07 51.52711 1.34350 33239 ft 436 kts 119°
2026-04-30 21:07 51.49923 1.42994 33235 ft 436 kts 119°
2026-04-30 21:08 51.47125 1.51628 33244 ft 436 kts 119°
2026-04-30 21:08 51.44321 1.60258 33234 ft 436 kts 119°
2026-04-30 21:09 51.41517 1.68877 33227 ft 436 kts 119°
2026-04-30 21:09 51.38705 1.77482 33246 ft 436 kts 119°
2026-04-30 21:10 51.35887 1.86076 33245 ft 436 kts 119°
2026-04-30 21:10 51.34475 1.90377 32925 ft 437 kts 119°
2026-04-30 21:10 51.33059 1.94677 32385 ft 438 kts 119°
2026-04-30 21:11 51.31632 1.98995 31880 ft 440 kts 119°
2026-04-30 21:11 51.30198 2.03320 31371 ft 441 kts 119°
2026-04-30 21:11 51.28756 2.07662 30874 ft 443 kts 119°
2026-04-30 21:11 51.27315 2.12003 30393 ft 444 kts 119°
2026-04-30 21:12 51.25866 2.16367 29838 ft 445 kts 119°
2026-04-30 21:12 51.24439 2.20755 29269 ft 446 kts 116°
2026-04-30 21:12 51.23459 2.25465 28733 ft 450 kts 107°
2026-04-30 21:12 51.22636 2.30290 28190 ft 451 kts 107°
2026-04-30 21:13 51.21818 2.35125 27662 ft 452 kts 107°
2026-04-30 21:13 51.20998 2.39976 27136 ft 454 kts 107°
2026-04-30 21:13 51.20172 2.44839 26626 ft 455 kts 107°
2026-04-30 21:13 51.19343 2.49707 26132 ft 456 kts 107°
2026-04-30 21:14 51.18510 2.54592 25632 ft 457 kts 107°
2026-04-30 21:14 51.17673 2.59477 25156 ft 458 kts 107°
2026-04-30 21:14 51.16829 2.64373 24681 ft 458 kts 107°
2026-04-30 21:14 51.15994 2.69207 24213 ft 443 kts 107°
2026-04-30 21:15 51.15191 2.73852 23627 ft 429 kts 107°
2026-04-30 21:15 51.14403 2.78400 23034 ft 424 kts 107°
2026-04-30 21:15 51.13631 2.82844 22461 ft 420 kts 107°
2026-04-30 21:15 51.12842 2.87370 21880 ft 417 kts 107°
2026-04-30 21:16 51.12065 2.91798 21319 ft 415 kts 107°
2026-04-30 21:16 51.11291 2.96203 20766 ft 412 kts 107°
2026-04-30 21:16 51.10534 3.00525 20228 ft 410 kts 107°
2026-04-30 21:16 51.09771 3.04876 19689 ft 407 kts 107°
2026-04-30 21:17 51.09000 3.09257 19166 ft 405 kts 107°
2026-04-30 21:17 51.08242 3.13555 18651 ft 403 kts 107°
2026-04-30 21:17 51.07484 3.17824 18080 ft 400 kts 107°
2026-04-30 21:17 51.06738 3.22025 17530 ft 389 kts 107°
2026-04-30 21:18 51.06015 3.26090 17013 ft 378 kts 107°
2026-04-30 21:18 51.05306 3.30066 16506 ft 370 kts 107°
2026-04-30 21:18 51.04607 3.33965 16000 ft 364 kts 107°
2026-04-30 21:18 51.03913 3.37817 15501 ft 361 kts 107°
2026-04-30 21:19 51.03232 3.41590 15043 ft 357 kts 107°
2026-04-30 21:19 51.02544 3.45394 14574 ft 350 kts 107°
2026-04-30 21:19 51.01887 3.49027 14153 ft 344 kts 107°
2026-04-30 21:19 51.01231 3.52661 13693 ft 341 kts 107°
2026-04-30 21:20 51.00573 3.56311 13225 ft 338 kts 107°
2026-04-30 21:20 50.99926 3.59886 12745 ft 335 kts 107°
2026-04-30 21:20 50.99297 3.63353 12302 ft 327 kts 107°
2026-04-30 21:20 50.98664 3.66822 11893 ft 319 kts 107°
2026-04-30 21:21 50.98062 3.70122 11505 ft 312 kts 107°
2026-04-30 21:21 50.97465 3.73398 11115 ft 306 kts 107°
2026-04-30 21:21 50.96295 3.79803 10340 ft 299 kts 107°
2026-04-30 21:22 50.95716 3.82961 9956 ft 297 kts 107°
2026-04-30 21:22 50.94014 3.92118 8780 ft 279 kts 107°
2026-04-30 21:23 50.93473 3.95034 8401 ft 273 kts 107°
2026-04-30 21:23 50.92932 3.97891 8032 ft 267 kts 111°
2026-04-30 21:23 50.90826 4.02516 7300 ft 256 kts 132°
2026-04-30 21:24 50.89633 4.04577 6942 ft 251 kts 132°
2026-04-30 21:24 50.88474 4.06563 6581 ft 242 kts 135°
2026-04-30 21:24 50.87109 4.08062 6196 ft 239 kts 153°
2026-04-30 21:24 50.85638 4.09124 5835 ft 225 kts 154°
2026-04-30 21:25 50.82894 4.11099 5191 ft 210 kts 154°
2026-04-30 21:25 50.81618 4.12152 4876 ft 203 kts 139°
2026-04-30 21:25 50.80986 4.14058 4545 ft 203 kts 97°
2026-04-30 21:26 50.81884 4.18327 3880 ft 206 kts 71°
2026-04-30 21:26 50.82497 4.20366 3564 ft 204 kts 71°
2026-04-30 21:27 50.83707 4.24374 3024 ft 197 kts 72°
2026-04-30 21:27 50.84281 4.26300 2829 ft 194 kts 72°
2026-04-30 21:27 50.84853 4.28231 2557 ft 191 kts 73°
2026-04-30 21:28 50.85891 4.31708 2086 ft 154 kts 73°
2026-04-30 21:28 50.86312 4.33106 1889 ft 130 kts 74°
2026-04-30 21:28 50.87001 4.35467 1563 ft 111 kts 75°
2026-04-30 21:29 50.87318 4.36573 1423 ft 110 kts 76°
2026-04-30 21:29 50.88157 4.39496 1034 ft 109 kts 75°
2026-04-30 21:30 50.88791 4.41715 737 ft 112 kts 70°
2026-04-30 21:31 50.89754 4.45076 296 ft 113 kts 69°
2026-04-30 21:31 50.90380 4.47259 126 ft 87 kts 66°
2026-04-30 21:32 50.90651 4.48306 118 ft 22 kts 112°
2026-04-30 21:32 50.90576 4.48464 119 ft 16 kts 163°
2026-04-30 21:32 50.90512 4.48336 120 ft 17 kts 246°
2026-04-30 21:32 50.90462 4.48169 118 ft 16 kts 243°
2026-04-30 21:33 50.90418 4.48026 117 ft 14 kts 246°
2026-04-30 21:33 50.90337 4.47734 117 ft 15 kts 246°
2026-04-30 21:33 50.90295 4.47585 122 ft 15 kts 245°
2026-04-30 21:34 50.90246 4.47449 120 ft 13 kts 210°
2026-04-30 21:34 50.90120 4.47254 121 ft 15 kts 246°
2026-04-30 21:34 50.90078 4.47110 127 ft 14 kts 245°
2026-04-30 21:35 50.90033 4.46992 127 ft 10 kts 205°
2026-04-30 21:35 50.89969 4.47020 126 ft 6 kts 155°
2026-04-30 21:35 50.89962 4.47025 127 ft 0 kts 155°